COSMOS 2251 DEB

Satellite information

Favourite Embed

Satellite Type and Status

DEBRISIN ORBIT

Key statistics

Satellite COSMOS 2251 DEB at a glance.

Uptime

11818

Days in orbit

Revolutions

≈ 14.4

Per day

Orbit

LEO

Low Earth Orbit

Inclination

74.0

Latest

Satellite identification and parameters

Extended collection of information and parameters for COSMOS 2251 DEB.

Object identification

Identified? True

Debris? True

Object name: COSMOS 2251 DEB

International designator: 1993-036BPY

Object number (NORAD): 37973

Object ID (CCSDS): 37973

Country: COMMONWEALTH OF INDEPENDENT STATES (CIS)

Current information (Y/N): Y

RCS size: SMALL

Orbital parameters

Period: 99.917 minutes

Inclination: 74.0352 deg

SMA: 7132.671 km

Apoapsis: 783.247 km

Periapsis: 725.824 km

RAAN: 177.9925 deg

Eccentricy: 0.0040253

Argument of periapsis: 286.2739 deg

Mean anomaly: 73.399 deg

Mean motion: 14.4120086 rev/day

Mean motion (dot): 0.00001525 rev/day2

B* drag term: 0.00047614 1/REarth

Two-line elements (TLE)

Creation date: Aug. 8, 2025, 6:04 p.m.

Reference frame: TEME

Reference center: EARTH

Epoch: Aug. 8, 2025, 5:57 a.m. UTC

TLE line 0: 0 COSMOS 2251 DEB

TLE line 1: 1 37973U 93036BPY 25220.24802912 .00001525 00000-0 47614-3 0 9997

TLE line 2: 2 37973 74.0352 177.9925 0040253 286.2739 73.3990 14.41200860631662

Live tracking on map

Real-time ground track for satellite COSMOS 2251 DEB.

In-orbit conjunctions

A list of the most updated potential collisions computed for object COSMOS 2251 DEB.

Target Orbit TCA Probability of collision Miss distance Type
COSMOS 1125 LEO 2025-03-16 20:21:41 0.0001846771 800.0 (m) PAYLOAD
IRIDIUM 69 LEO 2025-01-08 14:04:52 0.0003914993 577.0 (m) PAYLOAD
FENGYUN 1C DEB SSO 2024-08-10 05:29:58 0.0001085347 144.0 (m) DEBRIS

Associated space launch

Military communications satellite. Destroyed in a collision with Iridium 33.

COSMOS 2251 DEB was lifted into orbit during the mission ‘Kosmos-3M | Strela-2M 51’, on board a Kosmos-3M space rocket.

The launch took place on June 16, 1993, 4:17 a.m. from 132/1 (132L).

For more information about the launch, click the button.

Launch to space Kosmos-3M | Strela-2M 51
Kosmos-3M | Strela-2M 51

Agency: N/A

Status: Launch Successful

Launch date: June 16, 1993, 4:17 a.m. UTC

Rocket: Kosmos-3M

Launch pad: 132/1 (132L)

Location: Plesetsk Cosmodrome, Russian Federation

...

Latest news about this satellite

There are no fresh news available about this satellite. Check back as we update our databases every day.


Newsletter sign-up

Weekly statistics, charts and insights to help you stay on top of the space industry.